Regional Weather Roundup
Issued by NWS Green Bay, WI

Home | Current Version | Previous Version | Text Only | Print | Product List | Glossary On
Versions: 1 2 3 4 5 6 7 8 9 10 11 12 13 14 15 16 17 18 19 20 21 22 23 24 25 26 27 28 29 30 31 32 33 34 35 36 37 38 39 40 41 42 43 44 45 46 47 48 49 50
000
ASUS43 KGRB 270200
RWRGRB

NORTH-CENTRAL AND NORTHEAST WISCONSIN REGIONAL WEATHER ROUNDUP
NATIONAL WEATHER SERVICE GREEN BAY WI
900 PM CDT FRI MAY 26 2017

WIZ005-009-010>012-018-019-270300-
NORTH CENTRAL WISCONSIN

CITY           SKY/WX    TMP DP  RH WIND       PRES   REMARKS
IRONWOOD       PTCLDY    65  55  70 SE6       29.77S
MANITOWISH WTR NOT AVBL
ARBOR VITAE    NOT AVBL
EAGLE RIVER    NOT AVBL
LAND O LAKES   CLOUDY    61  56  82 CALM      29.83S
RHINELANDER    CLOUDY    61  58  90 SE3       29.82S
PHILLIPS       CLEAR     61  55  80 CALM      29.79R
ANTIGO         NOT AVBL
TOMAHAWK       NOT AVBL
MERRILL        CLEAR     64  55  70 S3        29.82R
$$

WIZ013-073-270300-
NORTHEAST WISCONSIN

CITY           SKY/WX    TMP DP  RH WIND       PRES   REMARKS
IRON MOUNTAIN  CLOUDY    60  55  83 CALM      29.84R
MARINETTE      CLOUDY    61  51  70 S6        29.85S
$$

WIZ017-030-035>037-045-270300-
CENTRAL WISCONSIN

CITY           SKY/WX    TMP DP  RH WIND       PRES   REMARKS
MEDFORD        NOT AVBL
WAUSAU         CLEAR     62  54  74 S5        29.80S
MOSINEE        PTCLDY    61  54  77 S6        29.83S
MARSHFIELD     CLOUDY    60  53  77 S6        29.81R
WISC RAPIDS    CLEAR     62  54  74 S3        29.83S
STEVENS POINT  NOT AVBL
WAUPACA        CLEAR     64  55  70 S6        29.83S
SHAWANO        CLOUDY    66  56  69 S5        29.84R
CLINTONVILLE   MOCLDY    63  54  72 SE6       29.83S
WAUTOMA        CLEAR     62  54  74 S5        29.84S
$$

WIZ038-039-048-051-270300-
FOX VALLEY

CITY           SKY/WX    TMP DP  RH WIND       PRES   REMARKS
NWS GREEN BAY  CLOUDY    63  58  83 S6        29.84R
APPLETON       MOCLDY    61  52  72 S6        29.83R
OSHKOSH        PTCLDY    59  53  80 S6        29.84R
FOND DU LAC    PTCLDY    62  52  69 S5        29.85R
$$

WIZ022-050-052-270300-
EAST CENTRAL WISCONSIN

CITY           SKY/WX    TMP DP  RH WIND       PRES   REMARKS
EPHRAIM        NOT AVBL
WASHINGTON ISL NOT AVBL
STURGEON BAY   PTCLDY    58  52  80 SE3       29.85S
MANITOWOC      NOT AVBL
SHEBOYGAN      MOCLDY    57  54  89 S3        29.86R
$$

LMZ563-521-522-541>543-270300-
LAKESHORE

STATION/POSITION TIME  TEMP    WIND        PRES    VSBY  WAVE
                       AIR SEA DIR/SP/G                  HT/PER
                 (UTC) (F)     (DEG/KT/KT) (MB)    (MI)  (FT/S)
SHEBOYGAN LKSHOR 0100   49     130/  2/  3 1010.5S
KEWAUNEE LKSHORE 0130   53     180/  4/  5 1010.3S
NORTHPORT PIER   0140   56     210/  2/  5 1010.5S
N MID LAKE BUOY  0050   45 42  220/  4/  4 1012.0R         0
CHAMBERS ISLAND  0140   59     130/  2/  5 1009.8F
MENOMINEE LKSHOR 0130          150/  8/  9 1009.5F
$$




USA.gov is the U.S. government's official web portal to all federal, state and local government web resources and services.